2016-07-19 00:03:10 r, 18.55m,0000000003Hz,0000145014c,0000000.315s, 029.0C,00002191
2016-07-19 00:13:10 r, 18.53m,0000000003Hz,0000143106c,0000000.311s, 028.6C,00002191
2016-07-19 00:23:10 r, 18.53m,0000000003Hz,0000142168c,0000000.309s, 028.6C,00002191
2016-07-19 00:33:10 r, 18.52m,0000000003Hz,0000141063c,0000000.306s, 028.6C,00002191
2016-07-19 00:43:10 r, 18.52m,0000000004Hz,0000141285c,0000000.307s, 028.6C,00002191
2016-07-19 00:53:10 r, 18.62m,0000000003Hz,0000154595c,0000000.335s, 028.3C,00002191
2016-07-19 01:03:10 r, 18.61m,0000000003Hz,0000152764c,0000000.332s, 028.3C,00002191
2016-07-19 01:13:10 r, 18.61m,0000000003Hz,0000152639c,0000000.331s, 028.3C,00002191
2016-07-19 01:23:10 r, 18.58m,0000000003Hz,0000148882c,0000000.323s, 028.3C,00002191
2016-07-19 01:33:10 r, 18.60m,0000000003Hz,0000150777c,0000000.327s, 028.0C,00002191
2016-07-19 01:43:10 r, 18.66m,0000000002Hz,0000159328c,0000000.346s, 028.0C,00002191
2016-07-19 01:53:10 r, 18.72m,0000000003Hz,0000169011c,0000000.367s, 028.0C,00002191
2016-07-19 02:03:12 r, 18.77m,0000000002Hz,0000176810c,0000000.384s, 028.0C,00002191
2016-07-19 02:13:10 r, 18.80m,0000000003Hz,0000180249c,0000000.391s, 028.0C,00002191
2016-07-19 02:23:10 r, 18.81m,0000000002Hz,0000184232c,0000000.400s, 028.0C,00002191
2016-07-19 02:33:10 r, 18.83m,0000000002Hz,0000186091c,0000000.404s, 028.0C,00002191
2016-07-19 02:43:12 r, 18.87m,0000000003Hz,0000192790c,0000000.418s, 027.7C,00002191
2016-07-19 02:53:10 r, 18.92m,0000000002Hz,0000202487c,0000000.439s, 027.7C,00002191
2016-07-19 03:03:10 r, 19.06m,0000000002Hz,0000229412c,0000000.498s, 027.7C,00002191
2016-07-19 03:13:10 r, 19.23m,0000000002Hz,0000271613c,0000000.589s, 027.7C,00002191
2016-07-19 03:23:10 r, 19.25m,0000000002Hz,0000274625c,0000000.596s, 027.7C,00002191
2016-07-19 03:33:10 r, 19.18m,0000000001Hz,0000257458c,0000000.559s, 027.7C,00002191
2016-07-19 03:43:10 r, 18.98m,0000000003Hz,0000215305c,0000000.467s, 027.7C,00002191
2016-07-19 03:53:10 r, 18.67m,0000000003Hz,0000161339c,0000000.350s, 027.7C,00002191
2016-07-19 04:03:10 r, 18.84m,0000000003Hz,0000189206c,0000000.411s, 028.0C,00002191
2016-07-19 04:13:10 r, 18.33m,0000000003Hz,0000118056c,0000000.256s, 028.0C,00002191
2016-07-19 04:23:10 r, 17.71m,0000000006Hz,0000067071c,0000000.146s, 028.0C,00002191
2016-07-19 04:33:10 r, 16.94m,0000000014Hz,0000032690c,0000000.071s, 027.7C,00002191
2016-07-19 04:43:10 r, 15.74m,0000000042Hz,0000010870c,0000000.024s, 027.7C,00002191
2016-07-19 04:53:10 r, 14.54m,0000000127Hz,0000003580c,0000000.008s, 027.7C,00002191
2016-07-19 05:03:10 r, 12.88m,0000000598Hz,0000000000c,0000000.000s, 027.7C,00002191
2016-07-19 05:13:10 r, 11.26m,0000002657Hz,0000000000c,0000000.000s, 027.7C,00002191
2016-07-19 05:23:10 r, 09.90m,0000009292Hz,0000000000c,0000000.000s, 028.0C,00002191
2016-07-19 05:33:10 r, 08.57m,0000031635Hz,0000000000c,0000000.000s, 028.0C,00002191
2016-07-19 05:43:10 r, 07.57m,0000079493Hz,0000000000c,0000000.000s, 028.0C,00002191
2016-07-19 05:53:10 r, 06.76m,0000167515Hz,0000000000c,0000000.000s, 028.0C,00002191
2016-07-19 06:03:10 r, 06.23m,0000273818Hz,0000000000c,0000000.000s, 028.0C,00002191
2016-07-19 06:13:10 r, 05.89m,0000374033Hz,0000000000c,0000000.000s, 028.3C,00002191
2016-07-19 06:23:10 r, 00.00m,0000478051Hz,0000000000c,0000000.000s, 028.6C,00002191
2016-07-19 06:33:10 r, 00.00m,0000457652Hz,0000000000c,0000000.000s, 028.6C,00002191
2016-07-19 06:43:10 r, 00.00m,0000595516Hz,0000000000c,0000000.000s, 029.3C,00002191
2016-07-19 06:53:10 r, 00.00m,0000595337Hz,0000000000c,0000000.000s, 029.9C,00002191
2016-07-19 07:03:10 r, 00.00m,0000595232Hz,0000000000c,0000000.000s, 030.9C,00002191
2016-07-19 07:13:10 r, 00.00m,0000595199Hz,0000000000c,0000000.000s, 031.5C,00002191
2016-07-19 07:23:10 r, 00.00m,0000595167Hz,0000000000c,0000000.000s, 032.8C,00002191
2016-07-19 07:33:10 r, 00.00m,0000595108Hz,0000000000c,0000000.000s, 033.8C,00002191
2016-07-19 07:43:10 r, 00.00m,0000594971Hz,0000000000c,0000000.000s, 034.1C,00002191
2016-07-19 07:53:10 r, 00.00m,0000594948Hz,0000000000c,0000000.000s, 034.4C,00002191
2016-07-19 08:03:10 r, 00.00m,0000594844Hz,0000000000c,0000000.000s, 035.4C,00002191
2016-07-19 08:13:10 r, 00.00m,0000594724Hz,0000000000c,0000000.000s, 036.0C,00002191
2016-07-19 08:23:10 r, 00.00m,0000594646Hz,0000000000c,0000000.000s, 036.4C,00002191
2016-07-19 08:33:10 r, 00.00m,0000594523Hz,0000000000c,0000000.000s, 037.0C,00002191
2016-07-19 08:43:10 r, 00.00m,0000594579Hz,0000000000c,0000000.000s, 037.7C,00002191
2016-07-19 08:53:10 r, 00.00m,0000594469Hz,0000000000c,0000000.000s, 038.0C,00002191
2016-07-19 09:03:10 r, 00.00m,0000594493Hz,0000000000c,0000000.000s, 038.0C,00002191
2016-07-19 09:13:10 r, 00.00m,0000594479Hz,0000000000c,0000000.000s, 038.0C,00002191
2016-07-19 09:23:10 r, 00.00m,0000594505Hz,0000000000c,0000000.000s, 038.3C,00002191
2016-07-19 09:33:10 r, 00.00m,0000594472Hz,0000000000c,0000000.000s, 038.3C,00002191
2016-07-19 09:43:10 r, 00.00m,0000594407Hz,0000000000c,0000000.000s, 038.6C,00002191
2016-07-19 09:53:10 r, 00.00m,0000593884Hz,0000000000c,0000000.000s, 042.2C,00002191
2016-07-19 10:03:10 r, 00.00m,0000593409Hz,0000000000c,0000000.000s, 046.0C,00002191
2016-07-19 10:13:10 r, 00.00m,0000593043Hz,0000000000c,0000000.000s, 048.6C,00002191
2016-07-19 10:23:11 r, 00.00m,0000593212Hz,0000000000c,0000000.000s, 048.3C,00002191
2016-07-19 10:33:11 r, 00.00m,0000593432Hz,0000000000c,0000000.000s, 046.7C,00002191
2016-07-19 10:43:10 r, 00.00m,0000593638Hz,0000000000c,0000000.000s, 045.4C,00002191
2016-07-19 10:53:11 r, 00.00m,0000593368Hz,0000000000c,0000000.000s, 045.7C,00002191
2016-07-19 11:03:11 r, 00.00m,0000593127Hz,0000000000c,0000000.000s, 047.3C,00002191
2016-07-19 11:13:11 r, 00.00m,0000592884Hz,0000000000c,0000000.000s, 049.3C,00002191
2016-07-19 11:23:11 r, 00.00m,0000593000Hz,0000000000c,0000000.000s, 048.9C,00002191
2016-07-19 11:33:10 r, 00.00m,0000593202Hz,0000000000c,0000000.000s, 047.7C,00002191
2016-07-19 11:43:10 r, 00.00m,0000593193Hz,0000000000c,0000000.000s, 047.3C,00002191
2016-07-19 11:53:10 r, 00.00m,0000593180Hz,0000000000c,0000000.000s, 047.3C,00002191
2016-07-19 12:03:11 r, 00.00m,0000593087Hz,0000000000c,0000000.000s, 048.3C,00002191
2016-07-19 12:13:10 r, 00.00m,0000593106Hz,0000000000c,0000000.000s, 048.6C,00002191
2016-07-19 12:23:11 r, 00.00m,0000593090Hz,0000000000c,0000000.000s, 048.3C,00002191
2016-07-19 12:33:11 r, 00.00m,0000593237Hz,0000000000c,0000000.000s, 047.3C,00002191
2016-07-19 12:43:11 r, 00.00m,0000593176Hz,0000000000c,0000000.000s, 047.7C,00002191
2016-07-19 12:53:10 r, 00.00m,0000592900Hz,0000000000c,0000000.000s, 048.9C,00002191
2016-07-19 13:03:11 r, 00.00m,0000592711Hz,0000000000c,0000000.000s, 050.2C,00002191
2016-07-19 13:13:11 r, 00.00m,0000592379Hz,0000000000c,0000000.000s, 052.5C,00002191
2016-07-19 13:23:11 r, 00.00m,0000592220Hz,0000000000c,0000000.000s, 053.1C,00002191
2016-07-19 13:33:10 r, 00.00m,0000591997Hz,0000000000c,0000000.000s, 054.7C,00002191
2016-07-19 13:43:11 r, 00.00m,0000591637Hz,0000000000c,0000000.000s, 057.0C,00002191
2016-07-19 13:53:10 r, 00.00m,0000591642Hz,0000000000c,0000000.000s, 057.0C,00002191
2016-07-19 14:03:11 r, 00.00m,0000592390Hz,0000000000c,0000000.000s, 053.1C,00002191
2016-07-19 14:13:11 r, 00.00m,0000592986Hz,0000000000c,0000000.000s, 049.3C,00002191
2016-07-19 14:23:11 r, 00.00m,0000593537Hz,0000000000c,0000000.000s, 045.7C,00002191
2016-07-19 14:33:11 r, 00.00m,0000593734Hz,0000000000c,0000000.000s, 043.1C,00002191
2016-07-19 14:43:11 r, 00.00m,0000594132Hz,0000000000c,0000000.000s, 041.2C,00002191
2016-07-19 14:53:12 r, 00.00m,0000594267Hz,0000000000c,0000000.000s, 039.3C,00002191
2016-07-19 15:03:11 r, 00.00m,0000594441Hz,0000000000c,0000000.000s, 038.3C,00002191
2016-07-19 15:13:11 r, 00.00m,0000594456Hz,0000000000c,0000000.000s, 037.7C,00002191
2016-07-19 15:23:11 r, 00.00m,0000594564Hz,0000000000c,0000000.000s, 037.3C,00002191
2016-07-19 15:33:11 r, 00.00m,0000584327Hz,0000000000c,0000000.000s, 037.0C,00002191
2016-07-19 15:43:11 r, 00.00m,0000422844Hz,0000000000c,0000000.000s, 036.7C,00002191
2016-07-19 15:53:11 r, 00.00m,0000538312Hz,0000000000c,0000000.000s, 036.4C,00002191
2016-07-19 16:03:11 r, 00.00m,0000594535Hz,0000000000c,0000000.000s, 036.7C,00002191
2016-07-19 16:13:12 r, 00.00m,0000594523Hz,0000000000c,0000000.000s, 037.0C,00002191
2016-07-19 16:23:10 r, 00.00m,0000594294Hz,0000000000c,0000000.000s, 037.7C,00002191
2016-07-19 16:33:11 r, 00.00m,0000594236Hz,0000000000c,0000000.000s, 039.0C,00002191
2016-07-19 16:43:11 r, 00.00m,0000593844Hz,0000000000c,0000000.000s, 041.2C,00002191
2016-07-19 16:53:10 r, 00.00m,0000593449Hz,0000000000c,0000000.000s, 044.8C,00002191
2016-07-19 17:03:11 r, 00.00m,0000593458Hz,0000000000c,0000000.000s, 045.1C,00002191
2016-07-19 17:13:11 r, 00.00m,0000593119Hz,0000000000c,0000000.000s, 047.0C,00002191
2016-07-19 17:23:10 r, 00.00m,0000592893Hz,0000000000c,0000000.000s, 048.6C,00002191
2016-07-19 17:33:10 r, 00.00m,0000592751Hz,0000000000c,0000000.000s, 050.6C,00002191
2016-07-19 17:43:11 r, 00.00m,0000592741Hz,0000000000c,0000000.000s, 050.6C,00002191
2016-07-19 17:53:11 r, 00.00m,0000592776Hz,0000000000c,0000000.000s, 050.2C,00002191
2016-07-19 18:03:11 r, 00.00m,0000592886Hz,0000000000c,0000000.000s, 049.6C,00002191
2016-07-19 18:13:11 r, 00.00m,0000593045Hz,0000000000c,0000000.000s, 048.6C,00002191
2016-07-19 18:23:11 r, 00.00m,0000593009Hz,0000000000c,0000000.000s, 048.0C,00002191
2016-07-19 18:33:11 r, 00.00m,0000593203Hz,0000000000c,0000000.000s, 047.3C,00002191
2016-07-19 18:43:10 r, 00.00m,0000593320Hz,0000000000c,0000000.000s, 047.0C,00002191
2016-07-19 18:53:11 r, 00.00m,0000593316Hz,0000000000c,0000000.000s, 046.7C,00002191
2016-07-19 19:03:11 r, 00.00m,0000593389Hz,0000000000c,0000000.000s, 046.0C,00002191
2016-07-19 19:13:11 r, 00.00m,0000593494Hz,0000000000c,0000000.000s, 045.4C,00002191
2016-07-19 19:23:11 r, 00.00m,0000593602Hz,0000000000c,0000000.000s, 044.8C,00002191
2016-07-19 19:33:10 r, 00.00m,0000593649Hz,0000000000c,0000000.000s, 044.4C,00002191
2016-07-19 19:43:11 r, 00.00m,0000593738Hz,0000000000c,0000000.000s, 043.8C,00002191
2016-07-19 19:53:11 r, 00.00m,0000593810Hz,0000000000c,0000000.000s, 043.1C,00002191
2016-07-19 20:03:11 r, 00.00m,0000593884Hz,0000000000c,0000000.000s, 042.5C,00002191
2016-07-19 20:13:11 r, 00.00m,0000593939Hz,0000000000c,0000000.000s, 041.9C,00002191
2016-07-19 20:23:11 r, 00.00m,0000594102Hz,0000000000c,0000000.000s, 041.2C,00002191
2016-07-19 20:33:11 r, 00.00m,0000551809Hz,0000000000c,0000000.000s, 040.9C,00002191
2016-07-19 20:43:11 r, 00.00m,0000456932Hz,0000000000c,0000000.000s, 039.9C,00002191
2016-07-19 20:53:11 r, 05.94m,0000357930Hz,0000000000c,0000000.000s, 039.3C,00002191
2016-07-19 21:03:11 r, 06.29m,0000257251Hz,0000000000c,0000000.000s, 038.6C,00002191
2016-07-19 21:13:11 r, 06.76m,0000167199Hz,0000000000c,0000000.000s, 037.7C,00002191
2016-07-19 21:23:11 r, 07.45m,0000088467Hz,0000000000c,0000000.000s, 037.0C,00002191
2016-07-19 21:33:11 r, 08.46m,0000034851Hz,0000000000c,0000000.000s, 036.4C,00002191
2016-07-19 21:43:11 r, 09.73m,0000010895Hz,0000000000c,0000000.000s, 035.7C,00002191
2016-07-19 21:53:11 r, 11.17m,0000002867Hz,0000000000c,0000000.000s, 035.1C,00002191
2016-07-19 22:03:11 r, 12.76m,0000000668Hz,0000000000c,0000000.000s, 034.8C,00002191
2016-07-19 22:13:11 r, 14.38m,0000000149Hz,0000000000c,0000000.000s, 034.4C,00002191
2016-07-19 22:23:11 r, 15.73m,0000000043Hz,0000010810c,0000000.023s, 034.1C,00002191
2016-07-19 22:33:11 r, 16.81m,0000000016Hz,0000029001c,0000000.063s, 033.8C,00002191
2016-07-19 22:43:11 r, 17.47m,0000000008Hz,0000053752c,0000000.117s, 033.5C,00002191
2016-07-19 22:53:11 r, 17.64m,0000000007Hz,0000062415c,0000000.135s, 033.1C,00002191
2016-07-19 23:03:11 r, 18.13m,0000000005Hz,0000096836c,0000000.210s, 032.8C,00002191
2016-07-19 23:13:11 r, 18.24m,0000000004Hz,0000107599c,0000000.234s, 032.8C,00002191
2016-07-19 23:23:11 r, 18.35m,0000000004Hz,0000118985c,0000000.258s, 032.5C,00002191
2016-07-19 23:33:11 r, 18.35m,0000000004Hz,0000118278c,0000000.257s, 032.5C,00002191
2016-07-19 23:43:11 r, 18.36m,0000000004Hz,0000119955c,0000000.260s, 032.5C,00002191
2016-07-19 23:53:11 r, 18.22m,0000000004Hz,0000105816c,0000000.230s, 032.2C,00002191
